Bellingham, Washington, United States (98225)
Lat: 48.76N, Lon: 122.49W
Wx Zone: WAZ503
Local Info
Past Weather Observations for Friday, July 25, 2014

NOTE: This archive is for the closest National Weather Service station to Bellingham. Information may differ from the station used for current weather conditions.

Click here for Long-term Archive

Time Weather Temperature Dewpoint Humidity Pressure Winds Precip Visibility
23:53
Clear
55°F / 13°C 52°F / 11°C 88% 30.12 in
(1020 mb)
Calm - 10SM
22:53
Clear
57°F / 14°C 52°F / 11°C 82% 30.09 in
(1019 mb)
Calm - 10SM
21:53
Clear
59°F / 15°C 54°F / 12°C 82% 30.09 in
(1019 mb)
S 3.5 mph
(S 6 kph)
- 10SM
20:53
Clear
59°F / 15°C 54°F / 12°C 82% 30.09 in
(1019 mb)
S 3.5 mph
(S 6 kph)
- 10SM
19:53
Clear
63°F / 17°C 54°F / 12°C 73% 30.09 in
(1019 mb)
Calm - 10SM
18:53
Clear
66°F / 19°C 52°F / 11°C 60% 30.09 in
(1019 mb)
Calm - 10SM
17:53
Clear
70°F / 21°C 48°F / 9°C 46% 30.09 in
(1019 mb)
WNW 3.5 mph
(WNW 6 kph)
- 10SM
16:53
Clear
70°F / 21°C 50°F / 10°C 50% 30.09 in
(1019 mb)
Variable 3.5 mph
(Variable 6 kph)
- 10SM
15:53
Clear
70°F / 21°C 50°F / 10°C 50% 30.12 in
(1020 mb)
Variable 4.6 mph
(Variable 7 kph)
- 10SM
14:53
Clear
72°F / 22°C 52°F / 11°C 50% 30.12 in
(1020 mb)
W 5.8 mph
(W 9 kph)
- 10SM
13:53
Clear
70°F / 21°C 52°F / 11°C 53% 30.12 in
(1020 mb)
Variable 5.8 mph
(Variable 9 kph)
- 10SM
12:53
Clear
70°F / 21°C 50°F / 10°C 50% 30.15 in
(1021 mb)
S 6.9 mph
(S 11 kph)
- 10SM
11:53
Clear
66°F / 19°C 54°F / 12°C 64% 30.15 in
(1021 mb)
SSE 6.9 mph
(SSE 11 kph)
- 10SM
10:53
Clear
64°F / 18°C 50°F / 10°C 60% 30.15 in
(1021 mb)
S 5.8 mph
(S 9 kph)
- 10SM
09:53
Clear
63°F / 17°C 52°F / 11°C 68% 30.15 in
(1021 mb)
Variable 6.9 mph
(Variable 11 kph)
- 10SM
08:53
Clear
61°F / 16°C 52°F / 11°C 72% 30.15 in
(1021 mb)
SSE 8.1 mph
(SSE 13 kph)
- 10SM
07:53
Partly Cloudy
59°F / 15°C 54°F / 12°C 82% 30.15 in
(1021 mb)
Variable 4.6 mph
(Variable 7 kph)
- 10SM
06:53
Partly Cloudy
59°F / 15°C 52°F / 11°C 77% 30.15 in
(1021 mb)
S 5.8 mph
(S 9 kph)
- 10SM
06:23
Partly Cloudy
59°F / 15°C 52°F / 11°C 77% 30.15 in
(1021 mb)
E 4.6 mph
(E 7 kph)
- 10SM
05:53
Mostly Cloudy
57°F / 14°C 52°F / 11°C 82% 30.15 in
(1021 mb)
E 4.6 mph
(E 7 kph)
- 10SM
05:50
Mostly Cloudy
57°F / 14°C 52°F / 11°C 82% 30.15 in
(1021 mb)
E 5.8 mph
(E 9 kph)
- 10SM
05:14
Partly Cloudy
55°F / 13°C 52°F / 11°C 88% 30.15 in
(1021 mb)
SE 4.6 mph
(SE 7 kph)
- 10SM
04:53
Mostly Cloudy
57°F / 14°C 52°F / 11°C 82% 30.15 in
(1021 mb)
SSE 5.8 mph
(SSE 9 kph)
- 10SM
03:53
Overcast
57°F / 14°C 52°F / 11°C 82% 30.18 in
(1022 mb)
S 5.8 mph
(S 9 kph)
- 10SM
03:31
Mostly Cloudy
55°F / 13°C 52°F / 11°C 88% 30.18 in
(1022 mb)
S 5.8 mph
(S 9 kph)
- 10SM
02:53
Partly Cloudy
55°F / 13°C 52°F / 11°C 88% 30.18 in
(1022 mb)
SSE 5.8 mph
(SSE 9 kph)
- 10SM
01:53
Clear
57°F / 14°C 52°F / 11°C 82% 30.18 in
(1022 mb)
S 6.9 mph
(S 11 kph)
- 10SM
00:53
Clear
57°F / 14°C 50°F / 10°C 77% 30.18 in
(1022 mb)
SSE 6.9 mph
(SSE 11 kph)
- 10SM
Time Weather Temperature Dewpoint Humidity Pressure Winds Precip Visibility


Weather for websites

WeatherForYou.com, LLC is not responsible for any damages or problems caused by this service. Current weather conditions are obtained from the closest station including government and personal stations which may have varying degrees of accuracy. Weather forecasts are derived from the NOAA NDFD. Like all things, this site belongs to Jesus Christ... He just trusts me to maintain it. If you have any questions or comments email webmaster@weatherforyou.com

Copyright © 2014, WeatherForYou.com LLC. All rights reserved.